#timestamp,LO_Frequency,Hit 
1598198415.9,286047001.1,N
1598198435.7,286047000.7,N
1598198455.5,286046998.7,N
1598198475.4,286047001.0,N
1598198495.2,286047002.8,N
1598198515.0,286046999.7,N
1598198515.9,286046999.7,N
1598198535.8,286046999.9,N
1598198555.6,286047000.3,N
1598198575.4,286047002.2,N
1598198595.3,286046999.7,N
1598198615.1,286047002.0,N
1598198635.8,286047001.8,N
1598198655.7,286047002.8,N
1598198675.5,286047004.4,P
1598198695.4,286047001.5,N
1598198715.2,286047004.4,N
1598198735.0,286047001.5,N
1598198735.9,286047001.5,N
1598198755.8,286047003.7,N
1598198775.6,286047004.0,N
1598198795.4,286047002.0,N
1598198815.3,286047002.4,N
1598198835.1,286047002.3,N
1598198836.0,286047002.3,N
1598198855.8,286047001.8,N
1598198875.7,286047003.9,P
1598198895.5,286047000.6,N
1598198915.3,286047002.8,N
1598198935.2,286047000.4,N
1598198955.9,286047002.6,N
1598198975.7,286047000.5,N
1598198995.6,286047002.1,N
1598199015.4,286047000.3,N
1598199035.2,286047000.0,N
1598199055.1,286047002.6,N
1598199056.0,286047002.6,N
1598199075.8,286046999.8,N
1598199095.6,286047001.6,N
1598199115.5,286047001.7,N
1598199135.3,286047001.3,N
1598199155.1,286047002.2,N
1598199175.9,286047001.6,N
1598199195.7,286047004.2,P
1598199215.5,286046999.8,N
1598199235.4,286047000.1,N
1598199255.2,286047000.5,N
1598199275.0,286047002.3,N
1598199276.0,286047002.3,N
1598199295.8,286047002.3,N
1598199315.6,286047002.5,N
1598199335.5,286047000.2,N
1598199355.3,286047002.4,N
1598199375.1,286047001.6,N
1598199395.9,286046999.8,N
1598199415.7,286047001.9,N
1598199435.5,286047001.5,N
1598199455.4,286047002.0,N
1598199475.2,286047001.9,N
1598199495.0,286047001.8,N
1598199495.9,286047001.8,N
1598199515.8,286047004.1,P
1598199535.6,286047000.7,N
1598199555.4,286046998.2,N
1598199575.3,286047000.7,N
1598199595.1,286047000.0,N
1598199615.8,286047002.6,N
1598199635.7,286047000.2,N
1598199655.5,286047000.1,N
1598199675.3,286046999.7,N
1598199695.2,286047002.8,N
1598199715.9,286047002.7,N
1598199735.7,286047000.0,N
1598199755.6,286047000.2,N
1598199775.4,286046998.2,N
1598199795.2,286047000.7,N
1598199815.1,286047000.9,N
1598199816.0,286047000.9,N
1598199835.8,286047000.7,N
1598199855.6,286047001.0,N
1598199875.5,286047000.8,N
1598199895.3,286046999.8,N
1598199915.1,286047000.0,N
1598199935.9,286047000.5,N
1598199955.7,286047001.1,N
1598199975.5,286047000.7,N
1598199995.4,286046998.3,N
1598200015.2,286046998.5,N
1598200035.0,286046998.4,N
1598200035.9,286046998.4,N
1598200055.8,286046999.3,N
1598200075.6,286047000.8,N
1598200095.4,286047001.2,N
1598200115.3,286046998.3,N
1598200135.1,286047000.6,N
1598200155.8,286047000.7,N
1598200175.7,286047000.8,N
1598200195.5,286046998.3,N
1598200215.3,286046998.4,N
1598200235.2,286047000.7,N
1598200255.9,286047001.1,N
1598200275.7,286046998.3,N
1598200295.6,286046998.8,N
1598200315.4,286046998.2,N
1598200335.2,286046998.4,N
1598200355.1,286046999.3,N
1598200356.0,286046999.3,N
1598200375.8,286046998.5,N
1598200395.6,286046998.3,N
1598200415.5,286046998.2,N
1598200435.3,286046997.0,N
1598200455.1,286046998.1,N
1598200475.9,286047001.2,N
1598200495.7,286046999.1,N
1598200515.5,286046998.5,N
1598200535.4,286046996.6,N
1598200555.2,286046997.0,N
1598200575.0,286046998.7,N
1598200575.9,286046998.7,N
1598200595.8,286046998.9,N
1598200615.6,286046999.2,N
1598200635.4,286046997.2,N
1598200655.3,286046999.6,N
1598200675.1,286046996.8,N
1598200695.8,286046996.6,N
1598200715.7,286046997.1,N
1598200735.5,286046999.0,N
1598200755.3,286046996.8,N
1598200775.2,286046997.6,N
1598200795.0,286046999.6,N
1598200795.9,286046999.6,N
1598200815.7,286046997.3,N
1598200835.6,286046997.0,N
1598200855.4,286046997.1,N
1598200875.2,286046997.1,N
1598200895.1,286046996.9,N
1598200896.0,286046996.9,N
1598200915.8,286046997.0,N
1598200935.6,286046996.6,N
1598200955.5,286046997.2,N
1598200975.3,286046997.6,N
1598200995.1,286046996.7,N
1598201015.9,286046995.3,P
1598201035.7,286046999.4,N
1598201055.6,286046998.1,N
1598201075.4,286046999.2,N
1598201095.2,286046998.3,N
1598201115.1,286046998.5,N
1598201116.0,286046998.5,N
1598201135.8,286046998.9,N
1598201155.6,286046999.3,N
1598201175.5,286046999.5,N
1598201195.3,286046999.3,N
1598201215.1,286046999.4,N
1598201235.9,286046998.2,N
1598201255.7,286046999.0,N
1598201275.5,286046999.1,N
1598201295.4,286046999.0,N
1598201315.2,286046998.7,N
1598201335.0,286046999.0,N
1598201335.9,286046999.0,N
1598201355.8,286046998.2,N
1598201375.6,286046999.6,N
1598201395.4,286046999.5,N
1598201415.3,286047001.2,N
1598201435.1,286046998.8,N
1598201436.0,286046998.8,N
1598201455.8,286046998.8,N
1598201475.7,286046999.0,N
1598201495.5,286046999.6,N
1598201515.3,286046996.5,P
1598201535.2,286046998.6,N
1598201555.0,286046998.2,N
1598201555.9,286046998.2,N
1598201575.7,286046998.7,N
1598201595.6,286046998.5,N
1598201615.4,286047000.7,N
1598201635.2,286046998.1,N
1598201655.1,286046998.5,N
1598201656.0,286046998.5,N
1598201675.8,286047000.4,N
1598201695.6,286046998.5,N
1598201715.5,286046998.8,N
1598201735.3,286047000.8,N
1598201755.1,286046998.3,N
1598201775.9,286046999.4,N
1598201795.7,286046998.7,N
1598201815.5,286046999.1,N
1598201835.4,286046999.0,N
1598201855.2,286046998.5,N
1598201875.0,286046999.6,N
1598201875.9,286046999.6,N
1598201895.8,286046999.6,N
1598201915.6,286046998.2,N
1598201935.4,286046999.5,N
1598201955.3,286046998.6,N
1598201975.1,286046998.9,N
1598201995.8,286046999.6,N
